[[{"header":{"parameterUnit":"m.s-1","parameterCategory":1,"la1":30.2991,"la2":30.254,"lo1":-89.0895,"lo2":-89.0444,"dy":0.0017,"dx":0.0017,"nx":28,"ny":28,"refTime":"2024-06-27T21:00:00:Z","depth":0,"parameterNumber":2,"parameterNumberName":"U-component_of_WINDS"},"data":[0,0,0,0,0,0,0,0,0,0,0,0,0,0,0,0,0,0,0,0,0,0,0,0,0,0,0,0,0,0,0,0,0,0,0,0,0,0,0,0,0,0,0,0,0,0,0,0,0,0,0,0,0,0,0,0,0,0,3.0372,3.0373,0,3.0484,3.0485,3.0486,3.0459,3.0457,3.0454,3.0452,3.0566,3.0571,3.0576,0,0,0,0,0,0,0,0,0,0,0,0,0,3.013,3.0135,3.0372,3.0373,3.0374,3.0484,3.0485,3.0487,3.0459,3.0456,3.0454,3.0451,3.0564,3.057,3.0576,0,0,0,0,0,0,0,0,0,0,0,0,0,3.0238,3.0137,3.0371,3.0374,3.0375,3.0483,3.0485,3.0487,3.046,3.0456,3.0453,3.045,3.0562,3.057,3.0577,3.069,0,0,3.06,3.0604,0,0,0,0,0,0,0,0,3.0232,3.0247,3.0372,3.0374,3.0376,3.0454,3.0442,3.0555,3.0461,3.0428,3.0452,3.0448,3.0531,3.0541,3.0569,3.0695,3.07,3.0601,3.0606,3.0609,3.0611,0,0,0,0,0,0,0,3.0225,3.0242,3.0416,3.0374,3.0376,3.0368,3.038,3.0463,3.0496,3.043,3.0428,3.0442,3.0532,3.0562,3.0572,3.0701,3.0601,3.0608,3.0612,3.0615,3.0922,3.0925,0,0,0,0,0,0,3.0216,3.0236,3.0412,3.0419,3.0294,3.0375,3.0388,3.0432,3.0495,3.0502,3.0445,3.044,3.0551,3.0563,3.0576,3.0709,3.0609,3.0616,3.062,3.0918,3.0922,3.0926,0,0,0,0,0,0,3.0211,3.0232,3.0408,3.0327,3.0349,3.0383,3.0432,3.0436,3.0467,3.0507,3.0512,3.047,3.0549,3.0565,3.0661,3.0713,3.0619,3.0626,3.0914,3.0919,3.0924,3.0978,0,0,0,0,0,0,3.0204,3.023,3.0274,3.0329,3.0354,3.0492,3.0436,3.0441,3.048,3.0475,3.0532,3.0538,3.0547,3.065,3.0668,3.0721,3.0632,3.0909,3.0916,3.0923,3.0971,3.0984,3.0995,0,0,0,0,0,3.0196,3.0285,3.0277,3.0298,3.0409,3.0495,3.0509,3.0519,3.0484,3.0528,3.0553,3.0536,3.0704,3.066,3.0681,3.0737,3.0906,3.0914,3.0922,3.0966,3.0982,3.0995,0,0,0,0,0,0,3.0236,3.0292,3.0283,3.0393,3.044,3.049,3.0545,3.0535,3.0592,3.0585,3.0594,3.0607,3.0705,3.0731,3.068,3.0847,3.08,3.0813,3.0826,3.0842,3.0853,3.0844,3.0639,0,0,0,0,0,3.0258,3.0323,3.0369,3.0461,3.0485,3.0511,3.0549,3.0553,3.0601,3.062,3.0652,3.0699,3.0762,3.0804,3.0864,3.0976,3.0986,3.1024,3.1036,3.1046,3.1056,3.1114,3.1131,3.0953,3.0953,3.0952,0,0,3.0303,3.0342,3.0383,3.047,3.0507,3.0573,3.0528,3.0601,3.065,3.0631,3.0722,3.0748,3.0801,3.0904,3.0951,3.0929,3.1108,3.1056,3.1063,3.1068,3.1124,3.1141,3.1156,3.0958,3.0957,3.0956,0,0,3.0419,3.0456,3.0536,3.0573,3.0628,3.0645,3.0664,3.0716,3.0732,3.0825,3.0811,3.0869,3.0979,3.1016,3.1049,3.1178,3.1164,3.1198,3.1259,3.1316,3.133,3.1342,3.1385,3.1401,3.1208,3.1208,3.1209,0,3.0468,3.0568,3.0578,3.0652,3.0689,3.0676,3.0755,3.0791,3.0863,3.0889,3.0863,3.0998,3.1033,3.1143,3.1175,3.1203,3.1224,3.119,3.1327,3.1339,3.1351,3.1392,3.1409,3.1212,3.1212,3.1211,3.1211,0,3.0624,3.0694,3.0752,3.0821,3.0866,3.0943,3.0962,3.1006,3.1006,3.1025,3.1118,3.1159,3.1226,3.1254,3.1254,3.1364,3.1348,3.1325,3.1277,3.1371,3.141,3.1426,3.1217,3.1216,3.1215,3.1214,0,0,3.0767,3.0841,3.0862,3.0892,3.0952,3.1005,3.1081,3.1147,3.1183,3.1234,3.1295,3.1387,3.1366,3.1404,3.1408,3.1458,3.1554,3.1429,3.143,3.1448,3.1674,3.1689,3.1708,3.1546,3.1549,3.1552,3.1669,0,3.0886,3.1019,3.1029,3.1148,3.1211,3.1198,3.1264,3.1307,3.1326,3.1382,3.1404,3.1468,3.1436,3.1459,3.1508,3.1532,3.1599,3.1524,3.1601,3.1604,3.1586,3.1728,3.1745,3.1854,3.1684,3.1687,3.1689,0,3.1042,3.1097,3.1222,3.1271,3.1297,3.1356,3.1416,3.147,3.1518,3.1529,3.1571,3.1568,3.1644,3.1595,3.1698,3.1647,3.1679,3.1696,3.17,3.1706,3.165,3.1735,3.1889,3.1904,3.1714,3.1712,3.171,0,3.113,3.1235,3.1323,3.135,3.141,3.1451,3.1477,3.1522,3.1561,3.1614,3.1638,3.1699,3.1732,3.1779,3.1792,3.1756,3.1894,3.1847,3.1903,3.1903,3.1931,3.1928,3.2089,3.1957,3.1956,3.1956,3.1956,0,3.126,3.1337,3.1363,3.1416,3.1501,3.1512,3.1595,3.1619,3.1659,3.1716,3.171,3.1764,3.1779,3.1835,3.1847,3.1929,3.1944,3.1954,3.1955,3.1953,3.1951,3.1972,3.1964,3.196,3.1959,3.1958,3.1958,0,3.1372,3.1393,3.1487,3.1536,3.155,3.161,3.1651,3.1702,3.1721,3.1793,3.1811,3.184,3.1906,3.1924,3.2004,3.2011,3.2106,3.2102,3.209,3.2089,3.2143,3.2137,3.2321,3.2344,3.2199,3.22,3.2201,0,3.1452,3.151,3.1565,3.1603,3.1632,3.1693,3.1732,3.1745,3.1786,3.1844,3.1887,3.1952,3.2004,3.2109,3.2137,3.2197,3.2192,3.2253,3.2201,3.2196,3.219,3.2185,3.219,3.2262,3.2263,3.2265,3.2266,0,3.1591,3.1598,3.1655,3.1715,3.1761,3.1809,3.1855,3.1886,3.1906,3.1952,3.2018,3.2059,3.2139,3.2202,3.2263,3.2289,3.228,3.2282,3.2298,3.2294,3.2283,3.2287,3.2113,3.2277,3.2276,3.2275,3.2274,3.2274,3.1688,3.1738,3.1784,3.1846,3.1882,3.1925,3.1974,3.1999,3.2055,3.2121,3.2126,3.2198,3.2243,3.2323,3.2353,3.2408,3.239,3.2413,3.2419,3.2424,3.2427,3.2277,3.242,3.2419,3.2419,3.2419,3.2419,0,3.1823,3.1852,3.191,3.1974,3.2023,3.2011,3.2061,3.2102,3.2165,3.2209,3.226,3.2336,3.2397,3.243,3.249,3.2528,3.2525,3.2544,3.2539,3.2545,3.2441,3.242,3.2545,3.2545,3.2545,3.2545,3.2545,3.2545,3.19,3.1983,3.1995,3.2096,3.2124,3.2194,3.2223,3.2262,3.2296,3.2381,3.2432,3.2453,3.2492,3.2555,3.261,3.2618,3.2639,3.2659,3.2665,3.2566,3.2553,3.254,3.2521,3.2665,3.2665,3.2764,3.2765,3.2765]},{"header":{"parameterUnit":"m.s-1","parameterCategory":1,"la1":30.2991,"la2":30.254,"lo1":-89.0895,"lo2":-89.0444,"dy":0.0017,"dx":0.0017,"nx":28,"ny":28,"refTime":"2024-06-27T21:00:00:Z","depth":0,"parameterNumber":3,"parameterNumberName":"V-component_of_WINDS"},"data":[0,0,0,0,0,0,0,0,0,0,0,0,0,0,0,0,0,0,0,0,0,0,0,0,0,0,0,0,0,0,0,0,0,0,0,0,0,0,0,0,0,0,0,0,0,0,0,0,0,0,0,0,0,0,0,0,0,0,3.0639,3.064,0,3.073,3.0731,3.0732,3.0712,3.071,3.0708,3.0707,3.0798,3.0802,3.0806,0,0,0,0,0,0,0,0,0,0,0,0,0,3.0446,3.045,3.0639,3.064,3.0642,3.073,3.0731,3.0732,3.0712,3.071,3.0708,3.0706,3.0797,3.0801,3.0806,0,0,0,0,0,0,0,0,0,0,0,0,0,3.0533,3.0451,3.0639,3.0642,3.0643,3.0729,3.0731,3.0733,3.0713,3.071,3.0708,3.0705,3.0795,3.0801,3.0807,3.0895,0,0,3.0825,3.0828,0,0,0,0,0,0,0,0,3.0528,3.054,3.0641,3.0642,3.0644,3.0707,3.0696,3.0787,3.0713,3.0686,3.0707,3.0704,3.077,3.0778,3.08,3.0899,3.0903,3.0826,3.0829,3.0832,3.0834,0,0,0,0,0,0,0,3.0522,3.0536,3.0675,3.0642,3.0644,3.0638,3.0648,3.0713,3.0741,3.0688,3.0687,3.0698,3.077,3.0794,3.0802,3.0904,3.0826,3.0831,3.0835,3.0837,3.1078,3.1081,0,0,0,0,0,0,3.0515,3.0531,3.0672,3.0678,3.0578,3.0644,3.0654,3.0689,3.074,3.0746,3.07,3.0697,3.0785,3.0795,3.0805,3.0911,3.0832,3.0838,3.0841,3.1076,3.1079,3.1082,0,0,0,0,0,0,3.0511,3.0528,3.0669,3.0604,3.0622,3.065,3.0689,3.0692,3.0717,3.0749,3.0754,3.072,3.0784,3.0797,3.0872,3.0913,3.084,3.0846,3.1072,3.1077,3.1081,3.1123,0,0,0,0,0,0,3.0506,3.0526,3.0561,3.0605,3.0625,3.0735,3.0692,3.0696,3.0727,3.0724,3.0769,3.0774,3.0783,3.0864,3.0878,3.092,3.085,3.1069,3.1074,3.1079,3.1118,3.1128,3.1137,0,0,0,0,0,3.0499,3.0569,3.0563,3.058,3.0669,3.0738,3.0749,3.0758,3.0731,3.0765,3.0786,3.0773,3.0907,3.0872,3.0888,3.0933,3.1066,3.1073,3.1079,3.1114,3.1126,3.1136,0,0,0,0,0,0,3.0529,3.0575,3.0568,3.0656,3.0693,3.0734,3.0778,3.0771,3.0816,3.0811,3.0819,3.0829,3.0906,3.0927,3.0887,3.102,3.0982,3.0992,3.1003,3.1015,3.1024,3.1017,3.0855,0,0,0,0,0,3.0546,3.0598,3.0636,3.0709,3.0728,3.075,3.078,3.0783,3.0822,3.0837,3.0864,3.0901,3.0952,3.0985,3.1033,3.1121,3.113,3.1159,3.1169,3.1176,3.1184,3.1231,3.1244,3.1103,3.1103,3.1103,0,0,3.0581,3.0613,3.0645,3.0715,3.0745,3.0798,3.0763,3.0821,3.0861,3.0846,3.0919,3.094,3.0982,3.1064,3.1101,3.1084,3.1225,3.1184,3.119,3.1194,3.1239,3.1252,3.1264,3.1107,3.1106,3.1106,0,0,3.0672,3.0702,3.0765,3.0795,3.084,3.0854,3.0869,3.0912,3.0925,3.0999,3.0988,3.1035,3.1122,3.1152,3.1179,3.128,3.1269,3.1295,3.1344,3.139,3.1401,3.1411,3.1446,3.1458,3.1304,3.1304,3.1304,0,3.071,3.0791,3.0799,3.0858,3.0889,3.0878,3.0942,3.097,3.1029,3.1049,3.1029,3.1137,3.1165,3.1253,3.1277,3.13,3.1316,3.129,3.1399,3.1409,3.1418,3.1451,3.1465,3.1307,3.1306,3.1306,3.1306,0,3.0834,3.0891,3.0936,3.0993,3.1029,3.109,3.1106,3.1141,3.1141,3.1157,3.1231,3.1264,3.1318,3.1339,3.134,3.1427,3.1415,3.1397,3.1359,3.1434,3.1466,3.1479,3.1311,3.131,3.1309,3.1308,0,0,3.0948,3.1007,3.1024,3.1049,3.1097,3.114,3.12,3.1253,3.1283,3.1323,3.1373,3.1446,3.1429,3.1459,3.1463,3.1503,3.158,3.1479,3.148,3.1496,3.1677,3.169,3.1705,3.1573,3.1576,3.1578,3.1673,0,3.1042,3.1149,3.1158,3.1253,3.1304,3.1294,3.1347,3.1381,3.1397,3.1442,3.146,3.1511,3.1485,3.1503,3.1542,3.1562,3.1616,3.1555,3.1618,3.1621,3.1608,3.1721,3.1736,3.1824,3.1685,3.1687,3.1689,0,3.1168,3.1211,3.1312,3.1352,3.1374,3.1421,3.1469,3.1513,3.1552,3.156,3.1594,3.1592,3.1652,3.1613,3.1696,3.1654,3.168,3.1694,3.1698,3.1703,3.1659,3.1729,3.1853,3.1866,3.1709,3.1707,3.1706,0,3.1239,3.1323,3.1394,3.1416,3.1464,3.1497,3.1519,3.1555,3.1586,3.1628,3.1648,3.1697,3.1724,3.1761,3.1772,3.1742,3.1854,3.1816,3.1862,3.1862,3.1886,3.1884,3.2014,3.1904,3.1903,3.1903,3.1903,0,3.1343,3.1405,3.1426,3.147,3.1538,3.1547,3.1614,3.1634,3.1666,3.1712,3.1707,3.175,3.1762,3.1807,3.1816,3.1882,3.1895,3.1903,3.1904,3.1903,3.1902,3.192,3.1914,3.1907,3.1906,3.1905,3.1905,0,3.1434,3.1451,3.1528,3.1567,3.1579,3.1627,3.1661,3.1702,3.1717,3.1775,3.179,3.1813,3.1866,3.188,3.1944,3.1949,3.2027,3.2023,3.2015,3.2014,3.2059,3.2054,3.2205,3.2225,3.2102,3.2103,3.2104,0,3.15,3.1547,3.1592,3.1622,3.1645,3.1695,3.1727,3.1737,3.177,3.1817,3.1852,3.1904,3.1947,3.2032,3.2054,3.2102,3.2098,3.2148,3.2105,3.2102,3.2098,3.2095,3.2099,3.2155,3.2157,3.2158,3.2159,0,3.1614,3.1619,3.1665,3.1714,3.1752,3.1791,3.1828,3.1854,3.1869,3.1906,3.196,3.1993,3.2058,3.2109,3.2157,3.2179,3.2171,3.2172,3.2185,3.2184,3.2176,3.218,3.2036,3.2168,3.2167,3.2167,3.2166,3.2166,3.1693,3.1734,3.1772,3.1823,3.1852,3.1887,3.1927,3.1947,3.1993,3.2046,3.2049,3.2108,3.2144,3.2208,3.2232,3.2277,3.2262,3.2282,3.2286,3.2291,3.2294,3.217,3.2286,3.2286,3.2286,3.2285,3.2285,0,3.1806,3.183,3.1877,3.1929,3.1969,3.1959,3.1999,3.2033,3.2085,3.2119,3.2161,3.2222,3.2272,3.2298,3.2347,3.2378,3.2376,3.2391,3.2388,3.2393,3.2305,3.2288,3.2392,3.2392,3.2392,3.2392,3.2391,3.2391,3.1869,3.1938,3.1948,3.203,3.2053,3.2111,3.2135,3.2166,3.2194,3.2263,3.2305,3.2321,3.2352,3.2403,3.2448,3.2454,3.2472,3.2488,3.2493,3.241,3.2399,3.2389,3.2373,3.2492,3.2493,3.2577,3.2577,3.2578]}]]